RH
5 3 4 10 17 30 35 31 40 46 46 33 36 37 50 42 49 36 27 12 7 4 31 100 40 30 17 29 42 51 67 100 86 89 91 91 68 36 16 11 12 12 24 36
4 4 8 22 33 39 49 46 51 38 44 41 50 56 45 45 44 38 38 28 9 4 11 100 50 23 18 18 27 44 64 85 97 82 82 97 81 45 23 15 12 13 11 33
4 6 19 41 43 45 58 60 49 45 41 60 44 58 59 54 59 53 48 50 24 5 6 92 100 33 14 13 19 31 50 54 84 82 89 96 88 60 30 19 13 11 11 12
5 9 23 53 56 50 47 60 60 63 57 52 50 39 64 73 77 84 76 66 51 12 5 62 100 99 18 11 13 20 42 44 80 74 88 88 61 48 41 29 20 13 13 11
5 12 28 51 50 49 50 58 66 67 76 66 59 50 57 76 78 82 86 84 69 41 6 8 100 100 58 39 9 14 35 42 49 82 98 86 68 52 52 49 35 26 16 13
8 14 36 49 65 68 71 64 59 59 52 66 74 66 63 67 64 65 79 92 82 49 14 5 93 100 100 63 10 9 26 40 37 78 97 99 85 64 75 72 53 35 22 16
8 18 40 55 56 86 81 72 35 41 41 73 92 77 92 84 84 76 58 50 73 47 29 5 51 100 100 92 18 8 15 39 42 70 98 87 86 70 61 76 68 43 31 23
10 14 46 62 63 72 94 99 94 90 72 52 95 100 87 86 82 93 96 68 51 76 48 8 7 100 100 100 52 10 7 34 38 62 97 97 90 70 55 88 88 68 41 28
8 23 59 67 79 94 100 97 100 79 68 61 94 96 95 72 89 95 98 84 76 59 71 28 4 86 100 96 91 11 6 26 37 47 93 96 95 74 57 76 94 86 61 40
9 27 52 68 90 92 100 100 85 98 88 69 89 94 73 71 88 70 96 91 68 47 40 42 5 58 100 95 99 25 5 16 34 42 60 97 88 97 64 64 96 87 88 73
9 13 49 65 79 88 95 96 84 89 98 100 96 97 96 96 94 71 100 73 34 32 30 37 7 12 100 97 97 37 7 9 27 49 61 96 97 96 73 67 91 90 88 98
9 9 33 56 82 91 100 99 80 84 98 100 100 100 100 100 97 77 100 98 91 65 54 39 5 4 58 92 97 68 16 6 29 88 64 93 96 97 88 98 93 98 96 100
9 9 20 47 70 96 100 95 96 99 100 100 100 94 100 100 100 100 98 92 100 100 18 16 5 4 46 100 100 57 11 5 32 70 52 78 94 96 97 96 96 96 96 97
11 13 22 48 94 89 97 100 100 100 100 100 99 56 85 100 95 100 100 100 100 100 62 92 24 5 6 58 97 100 16 7 55 77 50 54 81 98 95 97 96 97 96 96
8 12 18 40 72 92 97 97 99 100 100 100 98 86 99 98 61 94 100 98 100 100 93 61 27 6 6 26 100 60 31 72 74 70 40 50 81 97 94 98 97 98 96 92
9 14 16 33 56 93 96 94 100 100 86 96 90 100 100 100 96 100 100 100 100 100 100 73 53 22 6 20 98 100 75 64 61 74 53 81 99 100 94 95 95 97 97 96
5 9 10 23 42 66 80 99 92 100 96 93 80 97 100 100 100 100 100 100 100 100 86 88 100 100 74 8 54 97 47 60 65 52 60 64 60 84 96 93 96 97 95 96
4 6 10 14 27 44 62 85 78 100 99 100 97 88 40 85 90 94 100 100 100 100 86 52 91 89 95 70 42 53 55 64 59 71 61 100 87 98 100 98 100 97 97 94
3 5 8 9 17 35 51 61 83 79 94 87 100 87 61 45 60 79 89 74 99 100 100 93 35 44 58 40 57 50 76 66 70 78 90 95 94 71 93 97 97 98 97 99
4 4 8 9 12 18 34 56 77 95 99 100 100 80 59 57 75 71 99 84 56 96 100 100 100 48 50 27 88 68 55 58 83 71 60 95 98 99 98 98 97 98 98 95
4 6 8 12 11 13 25 44 60 79 89 98 100 89 90 95 56 85 89 49 49 76 96 100 100 91 36 24 85 99 92 54 76 99 100 50 78 84 94 95 98 98 98 90
3 4 6 10 9 12 16 42 56 59 76 82 97 100 98 100 64 58 43 96 60 100 100 100 88 100 100 64 82 98 98 91 86 100 98 90 97 96 98 97 100 100 96 90
4 4 7 11 14 11 14 18 46 44 69 69 97 99 99 100 100 96 52 95 92 100 98 100 100 100 88 66 100 98 100 96 100 100 99 98 96 99 98 96 93 95 98 98
3 3 5 9 11 17 12 12 27 58 50 75 83 100 98 100 100 86 98 67 84 65 99 99 100 100 100 86 99 99 100 98 99 98 91 98 100 100 97 96 95 100 99 98
4 2 3 7 8 9 12 12 13 40 56 67 84 100 97 99 100 88 78 98 91 73 76 99 100 100 100 98 100 98 100 99 97 91 98 98 98 96 99 97 99 99 98 94
3 2 3 5 8 9 10 10 12 23 56 59 81 93 85 86 100 100 96 98 100 90 69 73 96 100 98 100 100 100 100 100 97 99 100 99 97 95 93 92 95 97 95 96
Wind_Speed
86 76 58 38 35 38 40 43 43 41 41 43 35 29 25 33 37 34 30 27 52 86 102 106 106 102 97 94 85 82 76 66 68 71 68 64 62 60 57 57 53 51 51 47
83 63 45 34 37 38 38 42 41 39 36 32 23 22 24 26 30 28 24 19 29 72 99 105 106 105 102 99 90 85 79 68 68 67 67 64 63 62 58 57 56 53 52 50
75 53 33 34 38 39 36 42 42 34 25 25 24 25 25 28 30 27 26 22 16 52 92 113 108 108 104 101 94 88 82 76 68 63 65 66 66 65 61 61 59 58 54 52
63 44 31 37 39 39 38 34 32 28 23 22 23 24 22 24 26 24 28 30 23 29 67 116 106 111 107 103 97 90 86 81 68 76 72 67 66 66 65 63 61 59 55 50
57 37 30 34 36 36 34 35 32 29 33 30 29 29 24 20 23 29 33 36 29 24 45 102 113 112 108 104 100 91 90 85 78 73 69 70 71 68 68 65 61 59 56 53
46 31 31 33 34 35 33 33 34 37 36 33 33 34 28 25 23 25 29 35 38 29 32 79 122 112 114 107 103 94 92 89 87 73 63 79 72 69 71 68 65 60 57 55
44 30 31 33 30 31 35 37 40 41 42 35 35 34 33 31 31 32 31 26 29 35 30 62 122 114 116 110 104 98 94 91 91 82 57 66 70 70 67 66 64 64 61 57
37 31 30 34 34 36 38 39 41 45 47 45 40 39 34 35 35 35 31 28 19 26 28 45 112 121 116 112 103 101 95 94 93 89 66 58 62 78 71 64 66 63 57 52
35 27 32 35 36 38 39 41 41 46 50 51 41 37 39 39 34 30 34 25 25 27 34 26 91 125 118 115 98 103 97 95 92 84 64 66 58 81 67 62 73 60 58 53
35 24 30 33 35 39 41 44 44 47 53 52 42 37 39 44 36 29 30 22 17 34 41 33 69 129 118 116 101 102 98 94 93 83 85 50 65 62 73 73 68 75 56 54
38 24 27 32 34 39 42 46 46 49 51 48 48 39 39 43 42 29 35 32 13 12 22 31 52 122 117 115 101 101 99 95 92 82 79 66 46 62 74 80 71 65 59 53
38 26 26 30 33 39 41 44 48 52 48 41 43 39 38 42 36 25 26 30 25 20 10 27 52 103 124 114 107 99 101 94 85 85 89 75 49 48 77 63 58 56 68 56
40 33 25 31 35 36 40 46 47 49 45 40 43 37 38 35 32 23 23 19 13 17 3 24 53 97 126 111 106 95 101 96 89 75 80 72 54 41 69 76 67 57 68 63
39 34 28 30 33 36 39 41 45 47 46 41 44 39 39 25 24 28 17 17 12 12 11 6 42 90 114 118 103 99 100 95 79 70 80 73 67 46 42 63 63 67 64 64
39 33 25 29 32 33 36 38 43 46 47 45 42 41 38 34 27 24 23 19 8 13 5 10 45 85 105 112 101 99 96 78 69 69 75 71 68 58 48 50 47 70 63 71
39 31 25 26 29 31 32 35 37 45 41 44 42 38 36 36 29 16 36 22 11 19 16 19 43 63 92 104 103 96 81 75 72 72 71 69 49 43 38 42 45 50 53 56
42 30 24 23 25 27 31 30 35 41 38 40 39 38 33 28 17 15 31 31 22 18 25 27 33 56 64 93 103 77 78 73 71 74 65 69 60 52 35 38 40 43 41 53
48 32 25 19 21 25 28 29 34 35 36 33 34 34 20 27 23 16 34 29 24 36 38 35 27 28 56 63 80 74 73 69 70 63 63 50 51 40 39 35 35 41 47 48
56 39 25 22 19 20 25 29 29 34 35 35 27 31 19 15 17 21 28 23 26 28 23 31 32 21 37 56 56 72 73 68 66 62 63 55 45 45 39 38 35 30 39 43
56 43 33 24 19 19 19 23 26 28 31 30 24 24 17 7 8 7 19 23 30 19 31 25 36 32 32 54 51 58 65 60 61 59 59 64 41 27 33 35 35 36 32 36
52 39 32 26 22 17 15 17 20 22 24 25 24 20 12 16 8 11 15 18 26 28 19 39 37 33 38 53 59 41 59 66 61 50 51 58 44 37 38 35 39 35 35 29
58 48 34 25 19 15 13 12 13 16 20 21 20 18 17 16 14 8 9 12 19 19 28 31 28 46 55 55 50 36 50 60 63 57 43 55 49 38 33 30 28 29 27 27
57 54 37 26 23 19 13 11 7 8 11 11 14 14 17 18 18 13 14 13 21 6 21 29 31 41 37 52 41 30 33 60 62 61 40 27 36 28 30 35 31 29 38 44
62 54 41 31 24 23 17 13 8 3 4 4 6 7 8 11 15 13 14 14 17 15 12 37 35 31 35 33 36 33 30 48 56 56 57 45 29 27 35 33 32 37 35 44
64 61 53 39 31 24 22 16 15 8 2 2 1 1 6 9 11 13 13 18 15 12 14 24 26 40 26 28 22 24 26 35 42 42 46 35 41 34 38 42 41 41 41 40
63 60 54 45 31 23 18 21 19 16 9 7 6 3 4 10 10 15 20 15 20 16 18 17 23 22 30 23 34 27 30 32 34 36 37 23 22 33 28 27 31 37 41 41
Wind_Direction
337 334 334 330 331 329 323 317 315 316 311 307 307 294 274 286 290 296 301 256 223 209 204 205 206 208 210 216 209 212 210 211 210 207 207 208 208 210 207 212 215 212 210 211
338 338 336 335 334 331 321 319 324 326 319 320 313 301 292 287 283 293 309 304 234 210 204 200 207 206 208 212 208 210 209 208 209 208 207 208 210 211 207 212 215 217 214 209
339 342 339 336 334 332 328 332 334 338 346 332 331 314 295 281 282 286 295 303 277 215 204 198 203 206 205 209 208 205 207 205 206 206 209 207 208 209 208 211 212 216 218 214
342 345 343 338 334 337 336 344 345 343 340 337 328 321 305 281 275 275 284 288 286 233 207 199 196 205 204 206 207 202 205 203 202 201 209 207 212 212 209 211 212 214 218 217
346 345 341 335 335 341 346 343 344 347 351 345 334 330 333 307 279 273 274 277 276 261 209 201 195 198 203 206 204 200 201 201 200 204 209 203 208 211 210 209 211 213 214 218
344 346 348 340 343 348 348 353 345 359 0 354 346 336 336 316 303 295 281 270 267 255 223 200 197 193 199 203 202 198 198 199 200 199 207 201 205 208 206 210 209 211 212 215
342 346 349 347 350 349 353 354 357 359 1 7 348 341 333 334 325 325 306 276 255 255 240 197 198 190 196 202 202 196 196 198 199 204 195 202 205 208 209 213 211 212 212 212
348 347 351 348 349 351 352 357 1 354 354 358 353 339 343 346 339 329 314 297 255 249 245 201 198 191 193 198 200 194 194 196 200 200 197 202 208 211 208 209 217 214 214 216
356 346 350 350 350 352 353 1 360 357 359 358 357 347 352 347 338 327 321 301 261 248 241 220 197 192 193 196 195 193 193 194 200 196 197 201 209 206 203 210 211 217 213 213
357 354 354 351 348 353 353 0 359 6 360 351 360 350 356 348 355 350 339 325 286 249 231 230 195 193 188 193 190 193 192 193 200 192 202 201 207 207 203 207 215 210 212 210
356 354 351 350 349 355 357 358 2 7 1 345 345 350 355 353 355 352 354 5 353 267 225 215 195 194 187 190 188 191 190 192 197 193 196 198 195 207 205 206 210 215 215 215
354 357 357 352 356 359 359 360 4 7 360 347 351 1 354 349 344 359 0 4 18 23 235 204 187 189 190 190 188 192 190 191 194 192 197 207 207 210 202 205 209 203 213 215
351 354 355 357 1 1 1 2 5 5 358 357 356 5 360 354 348 354 1 14 32 41 33 181 181 183 187 188 185 192 188 190 192 191 196 204 206 199 203 207 213 211 217 211
353 350 349 357 357 3 1 357 4 3 360 8 8 13 6 25 12 15 26 11 25 69 84 243 184 180 188 190 186 191 188 189 190 192 193 198 207 206 203 213 218 209 214 208
352 350 347 351 357 0 2 4 5 5 2 9 18 6 11 29 25 37 55 20 66 40 87 183 181 175 184 188 187 188 188 186 187 191 193 197 205 210 219 211 219 210 216 217
350 350 345 348 352 356 6 9 8 8 6 10 18 23 22 24 24 57 51 52 33 67 94 157 164 165 181 186 188 186 182 184 188 188 192 193 194 195 213 217 220 211 210 209
349 346 344 341 347 357 5 9 12 10 7 9 15 24 33 34 22 49 22 32 40 86 119 149 157 161 172 186 192 187 181 185 187 190 192 198 202 205 208 202 210 211 216 216
356 348 345 339 341 353 8 12 11 8 8 11 12 30 36 27 22 10 40 46 54 62 146 157 147 162 179 183 191 188 181 184 189 187 190 182 188 201 207 214 205 218 219 219
358 352 348 345 339 346 358 12 15 16 6 6 12 17 35 24 18 33 32 70 73 69 82 130 158 161 181 177 179 180 187 184 184 187 189 188 201 209 204 203 211 215 210 216
354 354 343 342 341 339 353 9 10 12 6 3 11 16 65 62 9 335 57 112 114 95 78 99 135 162 162 175 169 183 183 185 191 192 197 198 204 217 219 234 226 230 218 218
354 347 335 331 330 328 338 360 8 7 10 4 14 24 54 53 78 74 87 124 134 118 105 119 134 145 149 172 164 161 189 194 187 187 183 197 201 205 192 193 207 213 204 200
354 353 345 328 318 313 312 339 357 4 11 11 27 41 50 46 66 84 78 116 159 123 122 127 136 137 148 175 177 180 187 189 190 195 192 187 191 186 193 173 175 193 198 198
351 351 350 333 322 311 304 295 328 2 13 22 28 47 62 61 49 58 87 114 151 115 111 131 136 127 154 175 178 184 187 195 194 201 189 167 199 211 213 190 186 189 197 197
351 349 347 342 317 302 287 281 262 306 1 41 26 35 84 94 85 84 101 128 142 144 120 132 137 154 130 155 151 147 177 192 189 200 207 198 183 192 193 195 202 198 205 198
349 349 348 344 332 309 276 253 248 234 221 162 165 35 88 92 97 110 128 134 123 158 145 148 151 153 140 138 149 174 175 192 195 203 198 194 212 203 181 185 191 205 206 201
347 348 347 344 342 323 296 247 232 226 216 188 188 191 124 89 132 117 148 122 141 126 173 167 162 153 162 142 159 149 163 172 190 197 193 190 194 191 181 177 186 193 198 199